TimeBST,TemperatureF,Dew PointF,Humidity,Sea Level PressureIn,VisibilityMPH,Wind Direction,Wind SpeedMPH,Gust SpeedMPH,PrecipitationIn,Events,Conditions,WindDirDegrees,DateUTC
6:50 AM,50.0,44.6,82,29.62,6.2,SSW,11.5,-,N/A,,Scattered Clouds,210,2012-10-03 05:50:00
7:20 AM,50.0,44.6,82,29.62,6.2,SSW,9.2,-,N/A,,Partly Cloudy,200,2012-10-03 06:20:00
7:50 AM,50.0,44.6,82,29.62,6.2,SSW,10.4,-,N/A,,Partly Cloudy,210,2012-10-03 06:50:00
8:20 AM,50.0,44.6,82,29.65,6.2,SW,11.5,-,N/A,,Partly Cloudy,220,2012-10-03 07:20:00
8:50 AM,50.0,42.8,76,29.65,6.2,SSW,12.7,-,N/A,,Partly Cloudy,210,2012-10-03 07:50:00
9:20 AM,50.0,42.8,76,29.68,6.2,SW,8.1,-,N/A,,Partly Cloudy,220,2012-10-03 08:20:00
9:50 AM,51.8,44.6,76,29.68,6.2,SSW,11.5,-,N/A,,Partly Cloudy,210,2012-10-03 08:50:00
10:20 AM,53.6,44.6,72,29.68,6.2,SSW,11.5,-,N/A,,Partly Cloudy,210,2012-10-03 09:20:00
10:50 AM,53.6,46.4,77,29.68,6.2,SSW,11.5,-,N/A,,Partly Cloudy,210,2012-10-03 09:50:00
11:20 AM,55.4,46.4,72,29.68,6.2,SW,12.7,-,N/A,,Partly Cloudy,220,2012-10-03 10:20:00
11:50 AM,57.2,44.6,63,29.68,6.2,SW,12.7,-,N/A,,Partly Cloudy,230,2012-10-03 10:50:00
12:20 PM,57.2,44.6,63,29.68,6.2,SW,13.8,-,N/A,,Scattered Clouds,220,2012-10-03 11:20:00
12:50 PM,55.4,46.4,72,29.68,6.2,SSW,11.5,-,N/A,,Scattered Clouds,210,2012-10-03 11:50:00
1:20 PM,53.6,44.6,72,29.68,6.2,SSW,8.1,-,N/A,,Partly Cloudy,210,2012-10-03 12:20:00
1:50 PM,57.2,48.2,72,29.65,6.2,SSW,9.2,-,N/A,,Partly Cloudy,210,2012-10-03 12:50:00
2:20 PM,59.0,46.4,63,29.65,6.2,SW,11.5,-,N/A,,Partly Cloudy,220,2012-10-03 13:20:00
3:20 PM,53.6,44.6,72,29.65,6.2,SW,15.0,-,N/A,Rain,Light Rain Showers,230,2012-10-03 14:20:00
3:50 PM,55.4,46.4,72,29.65,6.2,South,6.9,-,N/A,,Partly Cloudy,180,2012-10-03 14:50:00
4:20 PM,57.2,46.4,67,29.65,6.2,SSW,6.9,-,N/A,,Partly Cloudy,200,2012-10-03 15:20:00
4:50 PM,55.4,44.6,67,29.65,6.2,SW,8.1,-,N/A,,Partly Cloudy,230,2012-10-03 15:50:00
5:20 PM,51.8,41.0,67,29.65,6.2,WSW,19.6,33.4,N/A,Rain,Rain Showers,250,2012-10-03 16:20:00
5:50 PM,50.0,42.8,76,29.65,6.2,SSW,9.2,-,N/A,,Partly Cloudy,200,2012-10-03 16:50:00
6:20 PM,50.0,44.6,82,29.65,6.2,SSW,5.8,-,N/A,,Partly Cloudy,210,2012-10-03 17:20:00
6:50 PM,50.0,42.8,76,29.65,6.2,SSW,5.8,-,N/A,,Partly Cloudy,210,2012-10-03 17:50:00